Powrót do katalogu

FENGYUN 1C DEB

LostPO
NORAD 32346·DEBRIS·🇨🇳 China

Wystrzelony May 10, 1999 z Taiyuan Satellite Launch Center

Loading…

Następne Przeloty (najbliższe 24 godziny)

TLE

NieaktualneSource: Space-Track

Epoka: Sep 4, 2022, 07:22 UTC

1 32346U 99025CYP 22247.30748017  .00001779  00000-0  13632-2 0  9991
2 32346  97.8164  71.4643 0153580 159.4016 201.3429 13.88879985764002

Śledź FENGYUN 1C DEB w czasie rzeczywistym z AllMySat

Download on the App Store